Location: Centerville
(32.8776°N, 96.6203°W)
Time: 22:33:54
(UTC+00:00)

USA 308 - Pass Details

Date: 17 June 2021
Orbit: 566 x 576 km, 54.0° (Epoch: 13 July)

Event Time Altitude Azimuth Distance (km) Brightness Sun altitude
Exits shadow 08:48:39 46° 323° (NW) 760 3.5 -24.4°
Drops below altitude 10° 08:52:36 10° 31° (NNE) 1,860 6.6 -23.9°
Sets 08:54:55 0° 37° (NE) 2,760 7.9 -23.7°
